カタログに戻る

STARLINK-2616

運用中通信VLEO
NORAD 48695·PAYLOAD·🇺🇸 United States

打ち上げ May 26, 2021 から Cape Canaveral Space Force Station

Loading…

次のパス (今後24時間)

TLE

最新Source: CelesTrak SupGP

元期: Sep 14, 2026, 20:45 UTC

1 48695C 21044BK  26257.86506944  .00035312  00000+0  11354-2 0  2573
2 48695  53.1580 277.4080 0001125  87.0834 225.1064 15.31688400    10

AllMySatでSTARLINK-2616をリアルタイム追跡

Download on the App Store